Weather History for KFRG - May, 2013

Change the Weather History Date:

Thursday, May 9, 2013

  Actual Average Record
Temperature  
Mean Temperature 58 °F -  
Max Temperature 64 °F 64 °F 84 °F (2000)
Min Temperature 51 °F 48 °F 44 °F (2001)
Degree Days  
Heating Degree Days 8    
Growing Degree Days 8 (Base 50)    
Moisture  
Dew Point 55 °F    
Average Humidity 92    
Maximum Humidity 100    
Minimum Humidity 73    
Precipitation  
Precipitation 0.92 in - - ()
Sea Level Pressure  
Sea Level Pressure 29.94 in    
Wind  
Wind Speed 4 mph (ESE)    
Max Wind Speed 10 mph    
Max Gust Speed 33 mph    
Visibility 7 miles    
Events Fog , Rain , Thunderstorm    
Averages and records for this station are not official NWS values.
T = Trace of Precipitation, MM = Missing Value Source: NWS Daily Summary

Daily Weather History Graph

Daily Weather History Graph

Search for Another Location

Airport or City:

Trip Planner

Search our weather history database for the weather conditions in past years. The results will help you decide how hot, cold, wet, or windy it might be!

Date:

Astronomy

May. 09, 2013 Rise Set
Actual Time 5:42 AM EDT 7:58 PM EDT
Civil Twilight 5:11 AM EDT 8:28 PM EDT
Nautical Twilight 4:34 AM EDT 9:06 PM EDT
Astronomical Twilight 3:53 AM EDT 9:48 PM EDT
Moon 5:25 AM EDT (5/9) 7:50 PM EDT (5/9)
Length of Visible Light 15h 16m
Length of Day
14h 15m
Waning Crescent, 0% of the Moon is Illuminated
May 9
Waning Crescent
May 9
New
May 18
First Quarter
May 25
Full
May 31
Last Quarter

Hourly Weather History & Observations

Time (EDT) Temp. Dew Point Humidity Pressure Visibility Wind Dir Wind Speed Gust Speed Precip Events Conditions
12:09 AM 51.8 °F 51.8 °F 100% 30.03 in 0.5 mi Calm Calm - N/A Fog Fog
12:37 AM 51.8 °F 51.8 °F 100% 30.02 in 1.2 mi Calm Calm - N/A   Overcast
12:50 AM 51.8 °F 51.8 °F 100% 30.02 in 2.0 mi Calm Calm - N/A   Overcast
12:53 AM 52.0 °F 52.0 °F 100% 30.01 in 3.0 mi Calm Calm - N/A   Overcast
1:22 AM 53.6 °F 53.6 °F 100% 30.00 in 7.0 mi Calm Calm - N/A   Overcast
1:53 AM 53.1 °F 53.1 °F 100% 29.99 in 8.0 mi NE 3.5 mph - N/A   Overcast
2:36 AM 53.6 °F 53.6 °F 100% 29.98 in 8.0 mi East 4.6 mph - N/A   Overcast
2:43 AM 53.6 °F 53.6 °F 100% 29.98 in 7.0 mi East 3.5 mph - N/A   Overcast
2:53 AM 54.0 °F 54.0 °F 100% 29.98 in 6.0 mi ENE 3.5 mph - N/A   Overcast
3:23 AM 53.6 °F 53.6 °F 100% 29.97 in 8.0 mi East 4.6 mph - N/A   Overcast
3:53 AM 54.0 °F 53.1 °F 97% 29.97 in 8.0 mi East 3.5 mph - N/A   Mostly Cloudy
4:53 AM 54.0 °F 54.0 °F 100% 29.96 in 7.0 mi Calm Calm - 0.00 in Rain Light Rain
5:53 AM 54.0 °F 53.1 °F 97% 29.96 in 8.0 mi Calm Calm - 0.01 in Rain Light Rain
6:32 AM 55.4 °F 53.6 °F 94% 29.97 in 10.0 mi ESE 3.5 mph - 0.01 in   Overcast
6:41 AM 55.4 °F 53.6 °F 94% 29.97 in 8.0 mi ESE 5.8 mph - 0.01 in   Overcast
6:53 AM 55.0 °F 54.0 °F 96% 29.96 in 8.0 mi East 8.1 mph - 0.01 in   Overcast
7:14 AM 55.4 °F 53.6 °F 94% 29.96 in 7.0 mi Variable 4.6 mph - 0.00 in Rain Light Rain
7:21 AM 55.4 °F 55.4 °F 100% 29.96 in 9.0 mi East 4.6 mph - 0.00 in   Overcast
7:53 AM 55.9 °F 55.0 °F 97% 29.96 in 10.0 mi East 8.1 mph - 0.00 in   Overcast
8:18 AM 57.2 °F 55.4 °F 94% 29.96 in 9.0 mi East 4.6 mph - N/A   Overcast
8:53 AM 57.0 °F 57.0 °F 100% 29.96 in 1.0 mi East 6.9 mph - N/A   Overcast
9:00 AM 57.2 °F 55.4 °F 94% 29.95 in 0.8 mi East 8.1 mph - N/A   Overcast
9:20 AM 57.2 °F 55.4 °F 94% 29.95 in 1.0 mi ESE 6.9 mph - N/A   Overcast
9:49 AM 57.2 °F 57.2 °F 100% 29.95 in 2.0 mi Variable 3.5 mph - N/A   Overcast
9:53 AM 57.9 °F 57.0 °F 97% 29.95 in 2.0 mi East 6.9 mph - N/A   Overcast
10:01 AM 57.2 °F 57.2 °F 100% 29.94 in 3.0 mi East 6.9 mph - N/A   Overcast
10:15 AM 59.0 °F 57.2 °F 94% 29.94 in 3.0 mi East 6.9 mph - 0.00 in Rain Light Rain
10:53 AM 60.1 °F 57.9 °F 93% 29.94 in 3.0 mi East 9.2 mph - 0.03 in   Overcast
11:00 AM 60.8 °F 59.0 °F 94% 29.93 in 3.0 mi East 8.1 mph - N/A   Overcast
11:53 AM 61.0 °F 59.0 °F 93% 29.92 in 5.0 mi East 5.8 mph - 0.02 in Rain Light Rain
12:03 PM 60.8 °F 59.0 °F 94% 29.92 in 2.0 mi Variable 4.6 mph - 0.10 in Rain Heavy Rain
12:16 PM 59.0 °F 57.2 °F 94% 29.94 in 0.8 mi Variable 6.9 mph 33.4 mph 0.57 in Rain Heavy Rain
12:24 PM 57.2 °F 55.4 °F 94% 29.93 in 0.5 mi SW 10.4 mph 19.6 mph 0.79 in Fog , Rain , Thunderstorm Heavy Rain
12:31 PM 57.2 °F 55.4 °F 94% 29.93 in 2.0 mi SSW 6.9 mph - 0.81 in Rain , Thunderstorm Heavy Rain
12:40 PM 57.2 °F 55.4 °F 94% 29.93 in 4.0 mi South 9.2 mph - 0.84 in Rain , Thunderstorm Light Rain
12:53 PM 57.9 °F 55.9 °F 93% 29.93 in 10.0 mi SSE 8.1 mph - 0.85 in Rain , Thunderstorm Light Rain
12:59 PM 57.2 °F 57.2 °F 100% 29.93 in 10.0 mi SSE 9.2 mph - 0.00 in Rain Light Rain
1:27 PM 59.0 °F 57.2 °F 94% 29.92 in 10.0 mi Variable 3.5 mph - 0.00 in   Overcast
1:53 PM 61.0 °F 57.0 °F 87% 29.91 in 10.0 mi Calm Calm - 0.00 in   Overcast
2:48 PM 62.6 °F 55.4 °F 77% 29.89 in 10.0 mi West 9.2 mph - N/A   Overcast
2:53 PM 62.1 °F 55.9 °F 80% 29.89 in 10.0 mi West 6.9 mph - N/A   Overcast
3:26 PM 64.4 °F 55.4 °F 73% 29.89 in 10.0 mi West 8.1 mph - N/A   Overcast
3:37 PM 62.6 °F 55.4 °F 77% 29.89 in 10.0 mi West 10.4 mph - N/A   Overcast
3:53 PM 63.0 °F 55.9 °F 78% 29.89 in 10.0 mi NW 9.2 mph - N/A   Overcast
4:31 PM 60.8 °F 55.4 °F 82% 29.90 in 9.0 mi NW 6.9 mph 17.3 mph N/A   Overcast
4:53 PM 62.1 °F 55.9 °F 80% 29.90 in 10.0 mi NW 8.1 mph - N/A   Overcast
5:53 PM 64.0 °F 55.0 °F 73% 29.90 in 10.0 mi NNW 4.6 mph - N/A   Overcast
6:27 PM 62.6 °F 55.4 °F 77% 29.91 in 10.0 mi SW 10.4 mph - N/A   Mostly Cloudy
6:36 PM 62.6 °F 55.4 °F 77% 29.91 in 10.0 mi SW 6.9 mph - N/A   Mostly Cloudy
6:44 PM 62.6 °F 55.4 °F 77% 29.91 in 10.0 mi SW 3.5 mph - N/A   Scattered Clouds
6:53 PM 62.1 °F 55.0 °F 78% 29.91 in 10.0 mi Calm Calm - N/A   Scattered Clouds
7:53 PM 61.0 °F 55.0 °F 81% 29.92 in 10.0 mi SW 6.9 mph - N/A   Mostly Cloudy
8:53 PM 59.0 °F 54.0 °F 83% 29.94 in 10.0 mi SW 3.5 mph - N/A   Clear
10:53 PM 55.9 °F 53.1 °F 90% 29.94 in 10.0 mi Calm Calm - N/A   Partly Cloudy
11:53 PM 55.9 °F 53.1 °F 90% 29.95 in 10.0 mi Calm Calm - N/A   Clear